Milnor, North Dakota
Current Conditions -  °F | °C
As of 7:15 AM on Thursday 27 Nov 2014 (Local Time) from KGWR Reporting Station
Clear Clear  
Wind Chill: -29°   Ceiling: Unl
Heat Index: -15°   Visibility: 10mi
Dew Point: -22°   Wind: 6mph
Humidity: 70%   Direction: 210°SSW
Pressure: 30.49"   Gusts: NA
Location:  46.26°N, 97.46°W
Report Text: KGWR 271315Z AUTO 21005KT 10SM CLR M26/M30 A3049 RMK A01 P000
Loading
Personal Weather Stations






























Interactive Weather Map New forecast layout! Learn more

10-Day Weather Forecast

Advertisements
Track Severe Weather on mobile